Location: ??? ???
(33.4974°N, 35.4618°E)
Time: 18:51:51
(UTC+00:00)

CSL-04 Rocket - Pass Details

Date: 29 October 2020
Orbit: 805 x 861 km, 98.9° (Epoch: 30 November)

Event Time Altitude Azimuth Distance (km) Brightness Sun altitude
Exits shadow 16:52:33 28° 168° (SSE) 1,569 4.9 -26.3°
Maximum altitude 16:55:40 87° 255° (WSW) 864 3.6 -27.0°
Drops below altitude 10° 17:01:12 10° 346° (NNW) 2,486 6.3 -28.1°
Sets 17:03:34 0° 347° (NNW) 3,418 7.0 -28.6°
